(205890) = 2002 GC12

Discovered at Desert Eagle on 2002-04-15 by W. K. Y. Yeung.

Orbit

Orbit type: Main Belt

Note: WebGL enabled browser required.

epoch2023-09-13.0
epoch JD2460200.5
perihelion date2023-06-27.53789
perihelion JD2460123.03789
argument of perihelion (°)75.44375
ascending node (°)163.71151
inclination (°)6.18410
eccentricity0.1292109
perihelion distance (AU)2.0010330
Tisserand w.r.t. Jupiter3.6
ΔV w.r.t. Earth (km/sec)9.0
semimajor axis (AU)2.2979537
mean anomaly (°)21.91701
mean daily motion (°/day)0.28293840
aphelion distance (AU)2.595
period (years)3.48
P-vector [x]-0.51113371
P-vector [y]-0.82422760
P-vector [z]-0.24370308
Q-vector [x]0.85897000
Q-vector [y]-0.47988689
Q-vector [z]-0.17854721
absolute magnitude17.07
phase slope0.15
uncertainty0
referenceMPEC 2023-N43
observations used578
oppositions16
arc length (days)10331
first opposition used1995
last opposition used2023
residual rms (arc-secs)0.76
perturbers coarse indicatorM-v
perturbers precise indicator003Ek
first observation date used1995-03-27.0
last observation date used2023-07-09.0
computer nameMPCLINUX
JD of orbit computation2456494.381874
perihelion JD uncertainty (days)7.4564E-05
argument of perihelion uncertainty (°)4.3466E-05
ascending node uncertainty (°)3.7817E-05
inclination uncertainty (°)5.4733E-06
eccentricity uncertainty 3.9873E-08
perihelion distance uncertainty (AU)9.1587E-08
Minimum Orbit Intersection Distances (in AU)
for orbit epoch: 2460000.5, reference: E2023-N43
Mercury1.54398
Venus1.28045
Earth1.00006
Mars0.44194
Jupiter2.41177
Saturn6.50421
Uranus16.2001
Neptune27.2943

Observations

601 total observations over interval: 1995 03 27.41025 – 2023 07 09.210236
These data are available for download (format description).

Date (UT) J2000 RA J2000 Dec Magn Location Ref
1995 03 27.41025 12 54 14.81 -00 15 24.0 19.1 V 691 – Steward Observatory, Kitt Peak-Spacewatch MPS 57373
1995 03 27.43154 12 54 13.74 -00 15 11.6   691 – Steward Observatory, Kitt Peak-Spacewatch MPS 57373
1995 03 27.45284 12 54 12.69 -00 14 59.0   691 – Steward Observatory, Kitt Peak-Spacewatch MPS 57373
1998 02 02.18175 07 38 38.83 +14 31 06.7 20.5 V 691 – Steward Observatory, Kitt Peak-Spacewatch MPS 57373
1998 02 02.20323 07 38 37.55 +14 31 14.1 20.8 V 691 – Steward Observatory, Kitt Peak-Spacewatch MPS 57373
1998 02 02.22482 07 38 36.27 +14 31 20.9 20.5 V 691 – Steward Observatory, Kitt Peak-Spacewatch MPS 57373
2002 03 12.37934 13 29 21.14 -04 27 11.0 20.7 V 691 – Steward Observatory, Kitt Peak-Spacewatch MPS 55108
2002 03 12.40101 13 29 20.62 -04 27 01.5 20.1 V 691 – Steward Observatory, Kitt Peak-Spacewatch MPS 55108
2002 03 12.42211 13 29 20.14 -04 26 52.0 20.1 V 691 – Steward Observatory, Kitt Peak-Spacewatch MPS 55108
2002 03 16.38237 13 27 46.68 -03 56 02.3 19.2   704 – Lincoln Laboratory ETS, New Mexico MPS 55108
2002 03 16.39631 13 27 46.31 -03 55 54.2 19.3   704 – Lincoln Laboratory ETS, New Mexico MPS 55108
2002 03 16.41023 13 27 45.92 -03 55 47.4 19.9   704 – Lincoln Laboratory ETS, New Mexico MPS 55108
2002 03 16.42423 13 27 45.46 -03 55 41.1 19.7   704 – Lincoln Laboratory ETS, New Mexico MPS 55108
2002 04 08.40737 13 11 45.93 -00 24 37.2 19.1   644 – Palomar Mountain/NEAT MPS 55108
2002 04 08.41832 13 11 45.32 -00 24 31.1 19.0   644 – Palomar Mountain/NEAT MPS 55108
2002 04 08.42908 13 11 44.80 -00 24 25.3 19.1   644 – Palomar Mountain/NEAT MPS 55108
2002 04 09.23297 13 11 04.61 -00 16 59.4 19.1 R 699 – Lowell Observatory-LONEOS MPS 55108
2002 04 09.24958 13 11 03.82 -00 16 49.3   699 – Lowell Observatory-LONEOS MPS 55108
2002 04 09.26607 13 11 02.86 -00 16 40.8   699 – Lowell Observatory-LONEOS MPS 55108
2002 04 09.28262 13 11 02.00 -00 16 31.7   699 – Lowell Observatory-LONEOS MPS 55108
2002 04 11.31030 13 09 19.21 +00 01 57.2 19.1   704 – Lincoln Laboratory ETS, New Mexico MPS 55108
2002 04 11.32208 13 09 18.59 +00 02 03.5 19.1   704 – Lincoln Laboratory ETS, New Mexico MPS 55108
2002 04 11.33383 13 09 17.95 +00 02 09.3 19.7   704 – Lincoln Laboratory ETS, New Mexico MPS 55108
2002 04 11.34559 13 09 17.30 +00 02 15.8 19.3   704 – Lincoln Laboratory ETS, New Mexico MPS 55108
2002 04 11.35734 13 09 16.71 +00 02 21.9 19.3   704 – Lincoln Laboratory ETS, New Mexico MPS 55108
2002 04 15.23000 13 06 02.93 +00 36 10.6 20.2 V 333 – Desert Eagle Observatory MPS 55898
2002 04 15.25323 13 06 01.71 +00 36 22.0 19.8 V 333 – Desert Eagle Observatory MPS 55898
2002 04 15.27767 13 06 00.40 +00 36 34.2 19.7 V 333 – Desert Eagle Observatory MPS 55898
2002 04 16.26079 13 05 12.13 +00 44 46.6 18.8   704 – Lincoln Laboratory ETS, New Mexico MPS 55108
2002 04 16.27484 13 05 11.43 +00 44 53.6 19.1   704 – Lincoln Laboratory ETS, New Mexico MPS 55108
2002 04 16.28887 13 05 10.70 +00 45 01.0 19.1   704 – Lincoln Laboratory ETS, New Mexico MPS 55108
2002 04 16.30291 13 05 09.98 +00 45 07.7 19.7   704 – Lincoln Laboratory ETS, New Mexico MPS 55108
2002 04 16.31695 13 05 09.24 +00 45 14.8 19.3   704 – Lincoln Laboratory ETS, New Mexico MPS 55108
2002 04 18.22020 13 03 37.53 +01 00 36.5 20.2 V 333 – Desert Eagle Observatory MPS 55898
2002 04 18.24410 13 03 36.31 +01 00 49.4 20.3 V 333 – Desert Eagle Observatory MPS 55898
2002 04 18.26813 13 03 35.11 +01 01 02.5 20.8 V 333 – Desert Eagle Observatory MPS 55898
2002 04 21.18475 13 01 19.90 +01 23 10.0 20.2 V 333 – Desert Eagle Observatory MPS 55898
2002 04 21.20721 13 01 18.79 +01 23 18.8 19.8 V 333 – Desert Eagle Observatory MPS 55898
2002 04 21.22987 13 01 17.63 +01 23 29.1 19.9 V 333 – Desert Eagle Observatory MPS 55898
2002 05 07.15730 12 51 58.87 +02 47 42.8 19.6   644 – Palomar Mountain/NEAT MPS 55108
2002 05 07.17906 12 51 58.31 +02 47 47.1 19.7   644 – Palomar Mountain/NEAT MPS 55108
2002 05 07.20019 12 51 57.78 +02 47 51.1 19.7   644 – Palomar Mountain/NEAT MPS 55108
2003 10 19.248970 00 42 24.870 -01 15 36.10 20.49 V 645 – Apache Point-Sloan Digital Sky Survey MPS 136946
2003 10 19.252442 00 42 24.686 -01 15 37.39 21.37   645 – Apache Point-Sloan Digital Sky Survey MPS 136946
2006 05 10.42329 20 27 42.15 -11 30 47.2 21.1 V G96 – Mt. Lemmon Survey MPS 171365
2006 05 10.43097 20 27 42.66 -11 30 44.8 20.3 V G96 – Mt. Lemmon Survey MPS 171366
2006 05 10.43861 20 27 43.05 -11 30 43.5 19.4 V G96 – Mt. Lemmon Survey MPS 171366
2006 05 10.44629 20 27 43.45 -11 30 40.1 20.6 V G96 – Mt. Lemmon Survey MPS 171366
2006 05 12.43502 20 29 36.31 -11 20 11.6 20.6 V G96 – Mt. Lemmon Survey MPS 171366
2006 05 12.43947 20 29 36.52 -11 20 10.2 20.5 V G96 – Mt. Lemmon Survey MPS 171366
2006 05 12.44416 20 29 36.81 -11 20 08.9 20.5 V G96 – Mt. Lemmon Survey MPS 171366
2006 05 12.44882 20 29 37.03 -11 20 07.2 20.1 V G96 – Mt. Lemmon Survey MPS 171366
2006 05 30.40569 20 41 50.84 -10 02 33.2 20.5 V 691 – Steward Observatory, Kitt Peak-Spacewatch MPS 172774
2006 05 30.42311 20 41 51.24 -10 02 29.9 20.6 V 691 – Steward Observatory, Kitt Peak-Spacewatch MPS 172774
2006 05 30.44053 20 41 51.64 -10 02 26.4 20.4 V 691 – Steward Observatory, Kitt Peak-Spacewatch MPS 172774
2006 06 04.41139 20 43 35.00 -09 48 11.9   691 – Steward Observatory, Kitt Peak-Spacewatch MPS 173565
2006 06 04.42871 20 43 35.22 -09 48 09.4   691 – Steward Observatory, Kitt Peak-Spacewatch MPS 173565
2006 06 04.44600 20 43 35.46 -09 48 07.0   691 – Steward Observatory, Kitt Peak-Spacewatch MPS 173565
2006 07 01.36412 20 39 14.58 -09 48 13.3 19.6 V 703 – Catalina Sky Survey MPS 174691
2006 07 01.37155 20 39 14.29 -09 48 15.2 19.7 V 703 – Catalina Sky Survey MPS 174691
2006 07 01.37900 20 39 14.00 -09 48 15.8 19.4 V 703 – Catalina Sky Survey MPS 174691
2006 07 01.38647 20 39 13.75 -09 48 16.9 19.8 V 703 – Catalina Sky Survey MPS 174691
2006 07 22.28609 20 22 34.78 -11 24 33.3 19.4 R 644 – Palomar Mountain/NEAT MPS 175091
2006 07 22.30719 20 22 33.56 -11 24 40.9 19.2 R 644 – Palomar Mountain/NEAT MPS 175091
2006 07 22.32830 20 22 32.28 -11 24 48.0 19.1 R 644 – Palomar Mountain/NEAT MPS 175091
2006 08 12.20301 20 04 17.50 -13 46 07.9 20.1 R 644 – Palomar Mountain/NEAT MPS 175693
2006 08 12.22357 20 04 16.54 -13 46 17.0 19.1 R 644 – Palomar Mountain/NEAT MPS 175693
2006 08 12.24405 20 04 15.62 -13 46 25.1 19.4 R 644 – Palomar Mountain/NEAT MPS 175693
2006 08 18.15741 20 00 27.45 -14 25 56.7 19.6 R 644 – Palomar Mountain/NEAT MPS 176901
2006 08 18.18246 20 00 26.52 -14 26 06.8 19.7 R 644 – Palomar Mountain/NEAT MPS 176901
2006 08 18.20431 20 00 25.77 -14 26 15.2 19.5 R 644 – Palomar Mountain/NEAT MPS 176901
2008 12 22.52306 12 45 54.04 -04 39 00.5 21.8 V 691 – Steward Observatory, Kitt Peak-Spacewatch MPS 269205
2008 12 22.53610 12 45 55.31 -04 39 07.1 20.7 V 691 – Steward Observatory, Kitt Peak-Spacewatch MPS 269205
2008 12 22.54915 12 45 56.41 -04 39 12.2 21.3 V 691 – Steward Observatory, Kitt Peak-Spacewatch MPS 269205
2009 01 20.50268 13 24 53.31 -07 18 31.2 21.1 V G96 – Mt. Lemmon Survey MPS 272303
2009 01 20.50856 13 24 53.71 -07 18 32.6 21.1 V G96 – Mt. Lemmon Survey MPS 272303
2009 01 20.51436 13 24 54.10 -07 18 34.0 20.8 V G96 – Mt. Lemmon Survey MPS 272303
2009 01 20.52021 13 24 54.57 -07 18 35.4 20.8 V G96 – Mt. Lemmon Survey MPS 272303
2009 01 31.50453 13 36 36.50 -07 48 04.2 20.6 V G96 – Mt. Lemmon Survey MPS 272303
2009 01 31.51204 13 36 36.90 -07 48 04.8 20.8 V G96 – Mt. Lemmon Survey MPS 272303
2009 01 31.51944 13 36 37.29 -07 48 05.9 21.0 V G96 – Mt. Lemmon Survey MPS 272303
2009 01 31.52700 13 36 37.72 -07 48 06.4 20.8 V G96 – Mt. Lemmon Survey MPS 272303
2009 03 02.47660 13 54 35.53 -07 12 25.8 19.9 V G96 – Mt. Lemmon Survey MPS 279546
2009 03 02.48257 13 54 35.56 -07 12 24.1 19.8 V G96 – Mt. Lemmon Survey MPS 279546
2009 03 02.48877 13 54 35.60 -07 12 22.2 19.8 V G96 – Mt. Lemmon Survey MPS 279546
2009 03 02.49488 13 54 35.67 -07 12 20.9 20.1 V G96 – Mt. Lemmon Survey MPS 279546
2009 03 18.31560 13 53 25.24 -05 37 49.4   691 – Steward Observatory, Kitt Peak-Spacewatch MPS 281152
2009 03 18.33320 13 53 24.84 -05 37 42.0   691 – Steward Observatory, Kitt Peak-Spacewatch MPS 281152
